Jamestown, ND

9:06 AM CST on January 22, 2018 (GMT -0600)
Jamestown Municipal

Weather History for KJMS - April, 2014

Change the Weather History Date:

Friday, April 18, 2014

  Actual Average Record
Temperature  
Mean Temperature 42 °F 44 °F  
Max Temperature 54 °F 57 °F 90 °F (1987)
Min Temperature 30 °F 31 °F 10 °F (1910)
Degree Days  
Heating Degree Days 23 21  
Month to date heating degree days 544 459  
Since 1 July heating degree days 9083 8379  
Cooling Degree Days 0 0  
Month to date cooling degree days 0 0  
Year to date cooling degree days 0 0  
Moisture  
Dew Point 27 °F    
Average Humidity 56    
Maximum Humidity 72    
Minimum Humidity 39    
Precipitation  
Precipitation 0.00 in 0.04 in 1.11 in (1986)
Month to date precipitation 0.11 0.59  
Year to date precipitation 0.66 2.28  
Sea Level Pressure  
Sea Level Pressure 30.05 in    
Wind  
Wind Speed 25 mph (ESE)    
Max Wind Speed 39 mph    
Max Gust Speed 51 mph    
Visibility 10 miles    
Events      
T = Trace of Precipitation, MM = Missing Value Source: NWS Daily Summary

Daily Weather History Graph

Daily Weather History Graph

Search for Another Location

Airport or City:

Trip Planner

Search our weather history database for the weather conditions in past years. The results will help you decide how hot, cold, wet, or windy it might be!

Date:

Astronomy

Apr. 18, 2014 Rise Set
Actual Time 6:41 AM CDT 8:27 PM CDT
Civil Twilight 6:09 AM CDT 8:59 PM CDT
Nautical Twilight 5:29 AM CDT 9:39 PM CDT
Astronomical Twilight 4:47 AM CDT 10:22 PM CDT
Moon No Moon Rise 8:56 AM CDT (4/18)
Length of Visible Light 14h 50m
Length of Day
13h 46m
Waning Gibbous, 87% of the Moon is Illuminated
Apr 18
Waning Gibbous
Apr 22
Last Quarter
Apr 29
New
May 6
First Quarter
May 14
Full

Hourly Weather History & Observations

Time (CDT) Temp. Windchill Dew Point Humidity Pressure Visibility Wind Dir Wind Speed Gust Speed Precip Events Conditions
12:56 AM 30.9 °F 22.8 °F 21.9 °F 69% 30.26 in 10.0 mi East 9.2 mph - N/A   Mostly Cloudy
1:56 AM 32.0 °F 23.0 °F 21.0 °F 64% 30.26 in 10.0 mi ESE 11.5 mph - N/A   Mostly Cloudy
2:56 AM 33.1 °F 24.4 °F 21.0 °F 61% 30.25 in 10.0 mi ESE 11.5 mph - N/A   Overcast
3:56 AM 32.0 °F 22.5 °F 21.0 °F 64% 30.24 in 10.0 mi ESE 12.7 mph - N/A   Overcast
4:56 AM 32.0 °F 21.6 °F 19.9 °F 61% 30.23 in 10.0 mi ESE 15.0 mph - N/A   Overcast
5:56 AM 30.9 °F 20.7 °F 21.0 °F 67% 30.22 in 10.0 mi ESE 13.8 mph - N/A   Mostly Cloudy
6:56 AM 30.9 °F 19.8 °F 23.0 °F 72% 30.22 in 10.0 mi ESE 16.1 mph - N/A   Scattered Clouds
7:56 AM 34.0 °F 22.4 °F 24.1 °F 67% 30.20 in 10.0 mi ESE 20.7 mph - N/A   Scattered Clouds
8:56 AM 36.0 °F 24.2 °F 21.9 °F 57% 30.20 in 10.0 mi ESE 24.2 mph 31.1 mph N/A   Mostly Cloudy
9:56 AM 37.9 °F 27.3 °F 21.9 °F 53% 30.17 in 10.0 mi ESE 21.9 mph 36.8 mph N/A   Overcast
10:56 AM 41.0 °F 30.7 °F 23.0 °F 49% 30.14 in 10.0 mi ESE 25.3 mph 36.8 mph N/A   Overcast
11:56 AM 45.0 °F 35.4 °F 24.1 °F 44% 30.12 in 10.0 mi ESE 28.8 mph 36.8 mph N/A   Partly Cloudy
12:56 PM 48.0 °F - 25.0 °F 41% 30.08 in 10.0 mi ESE 28.8 mph 38.0 mph N/A   Clear
1:56 PM 50.0 °F - 27.0 °F 41% 30.04 in 10.0 mi SE 33.4 mph 41.4 mph N/A   Clear
2:56 PM 53.1 °F - 30.9 °F 43% 30.01 in 10.0 mi ESE 28.8 mph 42.6 mph N/A   Clear
3:56 PM 52.0 °F - 32.0 °F 47% 29.97 in 10.0 mi ESE 34.5 mph 44.9 mph N/A   Clear
4:56 PM 48.9 °F - 32.0 °F 52% 29.94 in 10.0 mi SE 27.6 mph 46.0 mph N/A   Clear
5:56 PM 48.0 °F - 34.0 °F 58% 29.91 in 10.0 mi SE 31.1 mph 43.7 mph N/A   Clear
6:56 PM 46.9 °F - 36.0 °F 66% 29.87 in 9.0 mi SE 35.7 mph 47.2 mph N/A   Clear
7:56 PM 46.0 °F 36.5 °F 36.0 °F 68% 29.84 in 8.0 mi ESE 31.1 mph 48.3 mph N/A   Clear
8:56 PM 45.0 °F 35.4 °F 35.1 °F 68% 29.81 in 10.0 mi ESE 28.8 mph 38.0 mph N/A   Clear
9:56 PM 44.1 °F 34.2 °F 35.1 °F 71% 29.78 in 10.0 mi ESE 28.8 mph 46.0 mph N/A   Clear
10:56 PM 45.0 °F 34.9 °F 35.1 °F 68% 29.74 in 10.0 mi SE 32.2 mph 43.7 mph N/A   Clear
11:56 PM 46.0 °F 36.7 °F 36.0 °F 68% 29.68 in 10.0 mi SE 29.9 mph 43.7 mph N/A   Clear